Location: Unspecified
(0.0000°N, 0.0000°E)
Time: 12:47:01
(UTC+00:00)

SR - Pass Details

Date: 18 December 2018
Orbit: 581 x 875 km, 66.7° (Epoch: 16 July)

Event Time Altitude Azimuth Distance (km) Brightness Sun altitude
Rises 23:00:04 0° 186° (S) 3,429 - -62.8°
Reaches altitude 10° 23:02:41 10° 178° (S) 2,510 - -63.2°
Maximum altitude 23:08:09 40° 110° (ESE) 1,262 - -63.8°
Drops below altitude 10° 23:13:34 10° 41° (NE) 2,499 - -64.3°
Sets 23:16:09 0° 34° (NE) 3,413 - -64.6°
